Home   Weather   Niigata   Past weeks

Flag for Japan Past Weather in Niigata, Japan — Yesterday and Last 2 Weeks

Now
37 °F

Partly sunny.


Feels Like: 32 °F
Forecast: 37 / 43 °F
Wind: 7 mph from Southeast

Location: Niigata Airport

Current Time: Jan 20, 2017 at 10:54:28 am

Latest Report: Jan 20, 2017 at 10:00 am


Visibility: N/A

Pressure: 29.83 "Hg

Humidity: 60%

Dew Point: 25 °F

Location of NiigataLocation

Past Weather in Niigata — Graph

°F

Niigata Temperature Yesterday

Maximum temperature yesterday: 43 °F (at 10:00 am)
Minimum temperature yesterday: 36 °F (at 7:00 pm)
Average temperature yesterday: 40 °F

High & Low Weather Summary for the Past Weeks

 TemperatureHumidityPressure
High48 °F (Jan 9, 2:45 pm)100% (Jan 9, 7:00 am)30.42 "Hg (Jan 9, 7:00 am)
Low27 °F (Jan 14, 7:00 am)45% (Jan 19, 5:00 pm)29.59 "Hg (Jan 9, 12:00 pm)
Average36 °F78%29.90 "Hg
* Reported Jan 5 9:00 am — Jan 20 9:00 am, Niigata, Weather by CustomWeather, © 2017

Note: Actual official high and low records may vary slightly from our data, if they occured in-between our weather recording intervals... More about our weather records

Advertising

Niigata Weather History for the Previous 24 Hours

Scroll right to see more
 ConditionsComfort  
Time TempWeatherWind HumidityBarometerVisibility
9:00 am
Fri, Jan 20
36 °FPartly sunny.6 mph70%29.89 "HgN/A
8:00 am32 °FBroken clouds.5 mph80%29.89 "HgN/A
7:00 am30 °FBroken clouds.5 mph86%29.95 "HgN/A
6:10 am30 °FPassing clouds.5 mph86%29.95 "HgN/A
9:00 pm
Thu, Jan 19
36 °FPassing clouds.8 mph81%30.09 "HgN/A
8:00 pm36 °FPassing clouds.10 mph81%30.12 "HgN/A
7:00 pm36 °FPartly cloudy.9 mph75%30.12 "HgN/A
6:17 pm39 °FPassing clouds.12 mph52%30.15 "HgN/A
5:00 pm41 °FPassing clouds.10 mph45%30.15 "HgN/A
4:00 pm41 °FPartly sunny.13 mph49%30.12 "HgN/A
3:00 pm41 °FPartly sunny.13 mph53%30.12 "HgN/A
2:00 pm43 °FScattered clouds.14 mph53%30.12 "HgN/A
1:00 pm43 °FScattered clouds.10 mph53%30.12 "HgN/A
12:00 pm43 °FPassing clouds.15 mph49%30.15 "HgN/A
11:00 am43 °FPassing clouds.16 mph49%30.18 "HgN/A
10:00 am43 °FScattered clouds.18 mph46%30.21 "HgN/A
Weather by CustomWeather, © 2017

See weather overviewHow to use our weather pages